カタログに戻る

STARLINK-3289

運用中通信VLEO
NORAD 50173·PAYLOAD·🇺🇸 United States

打ち上げ Dec 18, 2021 から Vandenberg Space Force Base

Loading…

次のパス (今後24時間)

TLE

最新Source: CelesTrak SupGP

元期: Sep 15, 2026, 01:53 UTC

1 50173C 21125T   26258.07895833  .00035273  00000+0  17633-2 0  2582
2 50173  53.2125 102.3519 0002532 118.9290 257.7175 15.16919415    16

AllMySatでSTARLINK-3289をリアルタイム追跡

Download on the App Store